GW6995 Weather Reports


time (UTC)temp
F
wind
direction
speed
knots
gust
knots
rain 1hr
in
rain 24hr
in
rain mn
in
humidity
%
barometer
mb
20260505210702 85 192 2.6 7.0 0.00 0.00 0.00 27 1007.6
20260505210159 85 276 2.6 7.8 0.00 0.00 0.00 27 1007.4
20260505205656 85 255 7.0 12.2 0.00 0.00 0.00 24 1007.6
20260505205154 85 188 3.5 5.2 0.00 0.00 0.00 28 1007.4
20260505204650 85 144 3.5 13.0 0.00 0.00 0.00 26 1007.7
20260505204148 85 182 1.7 8.7 0.00 0.00 0.00 27 1007.5
20260505203645 85 275 5.2 7.0 0.00 0.00 0.00 26 1007.8
20260505203143 86 123 8.7 13.0 0.00 0.00 0.00 26 1007.6
20260505202638 84 210 1.7 2.6 0.00 0.00 0.00 29 1007.6
20260505202134 85 220 7.8 12.2 0.00 0.00 0.00 25 1007.6
20260505201630 85 307 7.0 9.6 0.00 0.00 0.00 26 1007.4
20260505201129 85 182 5.2 8.7 0.00 0.00 0.00 26 1007.6
20260505200627 85 36 3.5 7.0 0.00 0.00 0.00 25 1007.8
20260505200124 86 142 7.0 12.2 0.00 0.00 0.00 25 1007.6
20260505195620 86 232 2.6 6.1 0.00 0.00 0.00 25 1008.0
20260505195117 85 278 2.6 5.2 0.00 0.00 0.00 26 1008.0
20260505194614 85 163 3.5 8.7 0.00 0.00 0.00 26 1007.9
20260505194109 86 248 1.7 7.8 0.00 0.00 0.00 29 1008.1
20260505193607 86 109 2.6 7.0 0.00 0.00 0.00 28 1008.2
20260505193103 85 230 6.1 13.0 0.00 0.00 0.00 25 1008.4
20260505192602 85 315 5.2 8.7 0.00 0.00 0.00 25 1008.3
20260505192059 86 113 7.0 12.2 0.00 0.00 0.00 26 1008.7
20260505191557 86 206 3.5 7.8 0.00 0.00 0.00 27 1008.3
20260505191055 86 115 1.7 7.8 0.00 0.00 0.00 29 1008.4
20260505190549 86 294 4.3 11.3 0.00 0.00 0.00 27 1008.6
20260505190046 85 87 3.5 9.6 0.00 0.00 0.00 32 1008.4
20260505185543 85 86 6.1 12.2 0.00 0.00 0.00 31 1008.7
20260505185039 85 163 4.3 7.8 0.00 0.00 0.00 31 1008.9
20260505184536 85 115 6.1 7.8 0.00 0.00 0.00 29 1009.0
20260505184033 85 213 0.9 6.1 0.00 0.00 0.00 32 1009.0
20260505183529 85 349 3.5 8.7 0.00 0.00 0.00 30 1009.0
20260505183027 85 97 2.6 7.0 0.00 0.00 0.00 31 1009.0
20260505182523 84 198 3.5 8.7 0.00 0.00 0.00 30 1009.0
20260505182020 84 154 6.1 11.3 0.00 0.00 0.00 31 1009.2
20260505181516 85 80 5.2 13.0 0.00 0.00 0.00 29 1009.2
20260505181014 85 217 4.3 6.1 0.00 0.00 0.00 34 1009.0
20260505180509 85 193 3.5 7.0 0.00 0.00 0.00 35 1009.1
20260505180008 84 203 2.6 6.1 0.00 0.00 0.00 36 1009.1
20260505175502 85 270 4.3 6.1 0.00 0.00 0.00 33 1009.4
20260505175000 84 138 0.9 7.0 0.00 0.00 0.00 38 1009.1
20260505174457 83 206 4.3 6.1 0.00 0.00 0.00 37 1009.1
20260505173953 83 154 2.6 3.5 0.00 0.00 0.00 37 1009.3
20260505173449 83 243 2.6 5.2 0.00 0.00 0.00 38 1009.2
20260505172946 83 86 5.2 8.7 0.00 0.00 0.00 35 1009.4
20260505172445 83 73 0.9 5.2 0.00 0.00 0.00 41 1009.5
20260505171944 82 153 1.7 5.2 0.00 0.00 0.00 41 1009.5
20260505171441 82 229 3.5 7.8 0.00 0.00 0.00 38 1009.5
20260505170937 82 318 5.2 8.7 0.00 0.00 0.00 39 1009.6
20260505170434 82 110 0.9 1.7 0.00 0.00 0.00 44 1009.6
20260505165930 82 117 3.5 7.0 0.00 0.00 0.00 38 1009.7
20260505165426 82 270 1.7 3.5 0.00 0.00 0.00 36 1009.8
20260505164921 81 300 2.6 7.0 0.00 0.00 0.00 41 1010.0
20260505164418 81 201 3.5 7.0 0.00 0.00 0.00 39 1010.0
20260505163916 82 240 5.2 8.7 0.00 0.00 0.00 39 1010.0
20260505163415 82 93 1.7 2.6 0.00 0.00 0.00 41 1009.9
20260505162913 82 138 2.6 2.6 0.00 0.00 0.00 38 1010.2
20260505162409 81 283 0.9 2.6 0.00 0.00 0.00 41 1010.4
20260505161906 82 190 4.3 6.1 0.00 0.00 0.00 38 1010.3
20260505161403 81 123 2.6 5.2 0.00 0.00 0.00 39 1010.4
20260505160900 80 190 1.7 5.2 0.00 0.00 0.00 42 1010.4
20260505160358 80 135 2.6 6.1 0.00 0.00 0.00 39 1010.6
20260505153337 78 84 1.7 3.5 0.00 0.00 0.00 42 1011.3
20260505152834 80 140 3.5 7.0 0.00 0.00 0.00 41 1010.9
20260505152332 80 203 1.7 1.7 0.00 0.00 0.00 43 1011.0
20260505151831 78 144 0.9 1.7 0.00 0.00 0.00 44 1011.2
20260505151328 77 8 1.7 7.0 0.00 0.00 0.00 41 1011.2
20260505150825 76 120 0.9 1.7 0.00 0.00 0.00 44 1011.3
20260505150322 77 171 0.9 2.6 0.00 0.00 0.00 45 1011.0
20260505140246 74 98 0.9 2.6 0.00 0.00 0.00 47 1011.6
20260505130210 70 143 0.9 1.7 0.00 0.00 0.00 52 1011.3
20260505124700 68 97 0.9 0.9 0.00 0.00 0.00 58 1011.3
20260505124157 67 119 1.7 2.6 0.00 0.00 0.00 57 1011.1
20260505123653 67 93 2.6 2.6 0.00 0.00 0.00 58 1011.4
20260505123150 66 196 1.7 2.6 0.00 0.00 0.00 59 1011.3
20260505122646 66 134 1.7 2.6 0.00 0.00 0.00 61 1011.4
20260505122144 66 121 1.7 2.6 0.00 0.00 0.00 62 1011.4
20260505121640 65 168 0.9 1.7 0.00 0.00 0.00 65 1011.5
20260505121137 63 136 0.0 3.5 0.00 0.00 0.00 70 1011.6
20260505120633 61 138 0.0 0.9 0.00 0.00 0.00 72 1011.5
20260505120129 60 104 0.9 1.7 0.00 0.00 0.00 72 1011.5
20260505115623 60 202 0.9 0.9 0.00 0.00 0.00 74 1011.6
20260505115121 60 178 0.9 1.7 0.00 0.00 0.00 74 1011.4
20260505114618 59 215 0.9 1.7 0.00 0.00 0.00 77 1011.5
20260505114114 58 274 1.7 1.7 0.00 0.00 0.00 77 1011.3
20260505113611 58 202 0.0 0.9 0.00 0.00 0.00 80 1011.7
20260505113108 58 203 0.0 0.9 0.00 0.00 0.00 81 1011.4
20260505112604 58 203 0.0 0.9 0.00 0.00 0.00 79 1011.5
20260505112102 59 207 0.0 1.7 0.00 0.00 0.00 77 1011.5
20260505111556 60 208 0.0 0.9 0.00 0.00 0.00 72 1011.5
20260505111052 60 185 0.0 0.0 0.00 0.00 0.00 71 1011.6
20260505110549 60 186 0.0 0.9 0.00 0.00 0.00 71 1011.9
20260505102021 55 192 0.0 0.0 0.00 0.00 0.00 77 1011.5
20260505101519 55 139 0.9 0.9 0.00 0.00 0.00 77 1011.4
20260505101015 55 131 0.0 0.9 0.00 0.00 0.00 78 1011.4
20260505100513 55 191 0.0 0.0 0.00 0.00 0.00 78 1011.2
20260505100010 55 191 0.0 0.0 0.00 0.00 0.00 77 1011.2
20260505095505 55 192 0.9 0.0 0.00 0.00 0.00 77 1011.0
20260505095001 55 193 0.0 0.0 0.00 0.00 0.00 77 1011.0
20260505094458 55 193 0.0 0.0 0.00 0.00 0.00 77 1010.9
20260505093955 55 193 0.0 0.9 0.00 0.00 0.00 76 1010.8
20260505093451 56 193 0.9 0.9 0.00 0.00 0.00 75 1010.7
20260505092949 55 194 0.0 0.9 0.00 0.00 0.00 75 1010.6
20260505092446 55 197 0.0 0.9 0.00 0.00 0.00 75 1010.8
20260505091944 55 177 1.7 2.6 0.00 0.00 0.00 77 1010.8
20260505091441 54 186 0.0 0.9 0.00 0.00 0.00 77 1010.6
20260505090939 54 186 0.0 0.0 0.00 0.00 0.00 77 1010.6
20260505090437 54 175 0.0 0.9 0.00 0.00 0.00 78 1010.7
20260505085934 54 175 0.0 0.9 0.00 0.00 0.00 78 1010.8
20260505085432 53 174 0.0 0.0 0.00 0.00 0.00 78 1010.7
20260505084930 53 174 0.0 0.9 0.00 0.00 0.00 79 1010.7
20260505084428 53 175 0.0 0.9 0.00 0.00 0.00 78 1010.5
20260505083925 53 174 0.0 0.0 0.00 0.00 0.00 78 1010.8
20260505083423 54 174 0.0 0.0 0.00 0.00 0.00 77 1010.6
20260505082919 54 174 0.0 0.0 0.00 0.00 0.00 76 1010.8
20260505082414 55 174 0.0 0.0 0.00 0.00 0.00 74 1010.5
20260505081912 55 174 0.0 0.0 0.00 0.00 0.00 73 1010.6
20260505081409 55 151 0.0 0.0 0.00 0.00 0.00 73 1010.7
20260505080905 56 145 0.0 0.0 0.00 0.00 0.00 73 1010.7
20260505080401 56 156 0.0 0.0 0.00 0.00 0.00 72 1010.6
20260505075857 56 136 0.0 0.9 0.00 0.00 0.00 72 1010.9
20260505075354 55 192 0.9 0.9 0.00 0.00 0.00 74 1010.8
20260505074851 55 186 0.0 0.9 0.00 0.00 0.00 74 1010.7
20260505074348 54 181 0.9 0.9 0.00 0.00 0.00 76 1010.9
20260505073846 53 180 0.9 0.9 0.00 0.00 0.00 78 1010.5
20260505073343 52 153 0.0 0.9 0.00 0.00 0.00 81 1010.9
20260505072840 52 149 0.0 0.9 0.00 0.00 0.00 81 1010.9
20260505072336 52 146 0.0 0.0 0.00 0.00 0.00 81 1010.6
20260505071832 52 146 0.0 0.0 0.00 0.00 0.00 81 1010.6
20260505071329 52 146 0.0 0.0 0.00 0.00 0.00 82 1010.8
20260505070827 52 146 0.0 0.0 0.00 0.00 0.00 80 1010.5
20260505070323 52 146 0.0 0.0 0.00 0.00 0.00 79 1010.4
20260505065818 52 146 0.0 0.0 0.00 0.00 0.00 79 1010.8
20260505065316 53 146 0.0 0.0 0.00 0.00 0.00 78 1010.6
20260505064813 53 146 0.0 0.0 0.00 0.00 0.00 77 1010.4
20260505064309 53 146 0.0 0.0 0.00 0.00 0.00 77 1010.7
20260505063808 53 146 0.0 0.0 0.00 0.00 0.00 76 1010.9
20260505063304 53 146 0.0 0.0 0.00 0.00 0.00 75 1010.5
20260505062800 54 146 0.0 0.0 0.00 0.00 0.00 74 1010.6
20260505062258 54 146 0.0 0.0 0.00 0.00 0.00 73 1010.6
20260505061754 54 146 0.0 0.0 0.00 0.00 0.00 73 1010.8
20260505061252 55 146 0.0 0.0 0.00 0.00 0.00 72 1010.7
20260505060750 55 146 0.0 0.0 0.00 0.00 0.00 72 1010.8
20260505060247 55 146 0.0 0.0 0.00 0.00 0.00 72 1010.7
20260505055742 54 147 0.0 0.9 0.00 0.00 0.00 73 1011.1
20260505055238 55 146 0.0 0.0 0.00 0.00 0.00 71 1010.7
20260505054736 55 146 0.0 0.0 0.00 0.00 0.00 70 1010.9
20260505054234 55 146 0.0 0.0 0.00 0.00 0.00 69 1010.9
20260505053732 56 146 0.0 0.0 0.00 0.00 0.00 68 1011.1
20260505053227 56 147 0.0 0.0 0.00 0.00 0.00 67 1011.0
20260505052725 56 147 0.0 0.0 0.00 0.00 0.00 67 1011.1
20260505052222 56 147 0.0 0.0 0.00 0.00 0.00 66 1011.2
20260505051719 57 147 0.0 0.0 0.00 0.00 0.00 65 1011.1
20260505051217 58 147 0.0 0.0 0.00 0.00 0.00 63 1011.1
20260505050715 58 147 0.0 0.0 0.00 0.00 0.00 62 1011.2
20260505050213 58 146 0.0 1.7 0.00 0.00 0.00 62 1011.2
20260505041642 60 194 0.0 0.9 0.00 0.00 0.00 56 1011.3
20260505041140 60 194 0.9 0.9 0.00 0.00 0.00 55 1011.2
20260505040636 60 195 0.9 1.7 0.00 0.00 0.00 55 1011.3
20260505040134 60 138 0.9 0.9 0.00 0.00 0.00 55 1011.2
20260505035630 60 193 0.0 2.6 0.00 0.00 0.00 56 1011.2
20260505035126 59 104 0.9 3.5 0.00 0.00 0.00 57 1011.4
20260505034623 59 188 0.0 1.7 0.00 0.00 0.00 57 1011.4
20260505034120 59 212 0.0 0.0 0.00 0.00 0.00 58 1011.3
20260505033617 60 212 0.0 0.0 0.00 0.00 0.00 56 1011.2
20260505033115 60 213 1.7 1.7 0.00 0.00 0.00 55 1011.2
20260505032613 60 165 0.0 0.9 0.00 0.00 0.00 55 1011.4
20260505032109 61 178 0.0 0.0 0.00 0.00 0.00 55 1011.2
20260505031606 62 178 0.0 0.0 0.00 0.00 0.00 52 1011.1
20260505031102 62 178 0.0 1.7 0.00 0.00 0.00 51 1011.5
20260505030600 62 208 0.0 0.9 0.00 0.00 0.00 51 1011.4
20260505030055 62 177 0.9 2.6 0.00 0.00 0.00 50 1011.4
20260505025551 62 119 1.7 2.6 0.00 0.00 0.00 50 1011.3
20260505025050 62 94 0.9 1.7 0.00 0.00 0.00 50 1011.3
20260505024547 62 200 0.9 2.6 0.00 0.00 0.00 50 1011.7
20260505024044 62 197 0.9 1.7 0.00 0.00 0.00 51 1011.4
20260505023541 63 219 0.9 0.9 0.00 0.00 0.00 50 1011.3
20260505023039 63 226 0.0 0.9 0.00 0.00 0.00 49 1011.6
20260505022536 64 213 0.9 1.7 0.00 0.00 0.00 49 1011.4
20260505022033 63 122 0.9 5.2 0.00 0.00 0.00 49 1011.7
20260505021530 64 207 0.9 1.7 0.00 0.00 0.00 49 1011.5
20260505021027 64 111 3.5 3.5 0.00 0.00 0.00 48 1011.6
20260505020526 64 199 1.7 2.6 0.00 0.00 0.00 49 1011.1
20260505020024 64 196 0.9 1.7 0.00 0.00 0.00 49 1011.3
20260505015521 64 143 1.7 2.6 0.00 0.00 0.00 49 1011.4
20260505015018 64 174 1.7 2.6 0.00 0.00 0.00 49 1011.5
20260505014514 64 216 0.9 2.6 0.00 0.00 0.00 50 1011.3
20260505014012 64 216 0.9 3.5 0.00 0.00 0.00 49 1011.2
20260505013509 65 187 2.6 2.6 0.00 0.00 0.00 48 1011.3
20260505013006 65 202 3.5 6.1 0.00 0.00 0.00 48 1011.3
20260505012504 65 136 0.0 2.6 0.00 0.00 0.00 48 1011.1
20260505012000 65 160 1.7 3.5 0.00 0.00 0.00 46 1011.1
20260505011456 66 155 0.9 1.7 0.00 0.00 0.00 44 1010.8
20260505010954 67 189 1.7 1.7 0.00 0.00 0.00 41 1011.0
20260505010449 67 139 0.9 2.6 0.00 0.00 0.00 37 1010.9
20260505005945 67 210 0.9 1.7 0.00 0.00 0.00 36 1010.7
20260505005442 67 204 0.9 1.7 0.00 0.00 0.00 36 1010.7
20260505004940 67 115 0.9 2.6 0.00 0.00 0.00 36 1010.6
20260505004436 67 263 0.9 1.7 0.00 0.00 0.00 36 1010.6
20260505003933 68 185 1.7 2.6 0.00 0.00 0.00 35 1010.6
20260505003431 68 217 0.9 0.9 0.00 0.00 0.00 36 1010.3
20260505002927 68 242 0.9 3.5 0.00 0.00 0.00 36 1010.1
20260505002423 68 145 0.9 2.6 0.00 0.00 0.00 36 1010.2
20260505001922 68 153 1.7 1.7 0.00 0.00 0.00 35 1010.2
20260505001419 69 79 0.9 2.6 0.00 0.00 0.00 35 1010.3
20260505000916 69 253 2.6 3.5 0.00 0.00 0.00 34 1009.8
20260505000414 69 115 2.6 6.1 0.00 0.00 0.00 35 1009.8
20260504235910 69 174 0.9 3.5 0.00 0.00 0.00 35 1009.7
20260504235408 69 215 0.9 2.6 0.00 0.00 0.00 35 1009.7
20260504234903 69 195 1.7 1.7 0.00 0.00 0.00 34 1009.7
20260504234401 70 214 1.7 3.5 0.00 0.00 0.00 33 1009.6
20260504233857 70 3 0.9 5.2 0.00 0.00 0.00 34 1009.7
20260504233353 70 88 0.9 2.6 0.00 0.00 0.00 33 1009.4
20260504232850 70 140 1.7 2.6 0.00 0.00 0.00 33 1009.4
20260504232347 70 104 3.5 6.1 0.00 0.00 0.00 33 1009.4
20260504231844 71 233 0.0 0.9 0.00 0.00 0.00 33 1009.2
20260504231341 71 166 1.7 3.5 0.00 0.00 0.00 33 1009.1
20260504230837 71 196 1.7 3.5 0.00 0.00 0.00 33 1009.0
20260504230335 71 300 0.0 3.5 0.00 0.00 0.00 33 1009.1
20260504225833 71 234 0.9 2.6 0.00 0.00 0.00 33 1009.0
20260504225329 72 107 1.7 3.5 0.00 0.00 0.00 31 1009.0
20260504224827 72 129 3.5 6.1 0.00 0.00 0.00 31 1009.0
20260504224323 73 155 3.5 5.2 0.00 0.00 0.00 30 1009.0
20260504223820 73 190 0.9 2.6 0.00 0.00 0.00 32 1009.2
20260504223316 73 160 0.9 1.7 0.00 0.00 0.00 33 1009.0
20260504222813 73 198 1.7 1.7 0.00 0.00 0.00 31 1009.2
20260504222309 73 200 1.7 5.2 0.00 0.00 0.00 31 1008.9
20260504221808 73 238 1.7 2.6 0.00 0.00 0.00 31 1009.0
20260504221304 74 238 4.3 7.8 0.00 0.00 0.00 29 1009.2
20260504220801 74 191 1.7 6.1 0.00 0.00 0.00 31 1009.2
20260504220258 74 133 4.3 7.8 0.00 0.00 0.00 29 1009.3
20260504215755 75 202 0.9 3.5 0.00 0.00 0.00 29 1009.2
20260504215251 75 308 2.6 3.5 0.00 0.00 0.00 28 1009.5
20260504214747 75 140 2.6 5.2 0.00 0.00 0.00 28 1009.5
20260504214244 75 281 1.7 5.2 0.00 0.00 0.00 29 1009.6
20260504213741 75 218 0.9 2.6 0.00 0.00 0.00 31 1009.2
20260504213237 74 211 1.7 1.7 0.00 0.00 0.00 31 1009.4
20260504212734 75 246 2.6 7.0 0.00 0.00 0.00 30 1009.5
20260504212231 75 103 0.9 1.7 0.00 0.00 0.00 31 1009.6
20260504211729 76 120 1.7 3.5 0.00 0.00 0.00 30 1009.6
20260504211224 76 200 3.5 3.5 0.00 0.00 0.00 30 1009.7